[[{"header":{"parameterUnit":"m.s-1","parameterCategory":1,"la1":30.2991,"la2":30.254,"lo1":-89.0895,"lo2":-89.0444,"dy":0.0017,"dx":0.0017,"nx":28,"ny":28,"refTime":"2026-01-11T09:00:00:Z","depth":0,"parameterNumber":2,"parameterNumberName":"U-component_of_WINDS"},"data":[0,0,0,0,0,0,0,0,0,0,0,0,0,0,0,0,0,0,0,0,0,0,0,0,0,0,0,0,0,0,0,0,0,0,0,0,0,0,0,0,0,0,0,0,0,0,0,0,0,0,0,0,0,0,0,0,0,0,-1.1394,-1.1395,0,-1.1458,-1.1459,-1.146,-1.1415,-1.1413,-1.1411,-1.1409,-1.1477,-1.1481,-1.1484,0,0,0,0,0,0,0,0,0,0,0,0,0,-1.1233,-1.1236,-1.1394,-1.1395,-1.1396,-1.1458,-1.1459,-1.146,-1.1415,-1.1413,-1.141,-1.1408,-1.1476,-1.148,-1.1485,0,0,0,0,0,0,0,0,0,0,0,0,0,-1.1301,-1.1237,-1.1394,-1.1381,-1.138,-1.1458,-1.1459,-1.146,-1.1416,-1.1412,-1.1409,-1.1407,-1.1474,-1.148,-1.1485,-1.158,0,0,-1.1502,-1.1505,0,0,0,0,0,0,0,0,-1.1297,-1.1307,-1.1382,-1.1382,-1.1381,-1.1425,-1.1427,-1.1501,-1.1416,-1.1402,-1.1409,-1.1405,-1.1462,-1.1469,-1.1488,-1.1584,-1.1586,-1.1503,-1.1506,-1.1508,-1.151,0,0,0,0,0,0,0,-1.1292,-1.1304,-1.1419,-1.1383,-1.1383,-1.1372,-1.1378,-1.1441,-1.1449,-1.1403,-1.14,-1.1408,-1.1462,-1.1482,-1.1489,-1.1588,-1.1502,-1.1507,-1.1511,-1.1513,-1.1763,-1.1766,0,0,0,0,0,0,-1.1288,-1.13,-1.1417,-1.1421,-1.1331,-1.1377,-1.1384,-1.1414,-1.1448,-1.145,-1.1411,-1.1406,-1.1474,-1.1482,-1.1491,-1.1604,-1.1508,-1.1514,-1.1517,-1.176,-1.1764,-1.1767,0,0,0,0,0,0,-1.1285,-1.1299,-1.1415,-1.136,-1.1374,-1.1383,-1.1417,-1.1417,-1.1438,-1.1453,-1.1455,-1.143,-1.1472,-1.1483,-1.1558,-1.1606,-1.1516,-1.1521,-1.1756,-1.1761,-1.1766,-1.1831,0,0,0,0,0,0,-1.1281,-1.1298,-1.1335,-1.1361,-1.1377,-1.1481,-1.142,-1.1421,-1.1447,-1.1441,-1.1472,-1.1474,-1.1471,-1.155,-1.1564,-1.1612,-1.1525,-1.1752,-1.1758,-1.1764,-1.1825,-1.1838,-1.1849,0,0,0,0,0,-1.1275,-1.1351,-1.1337,-1.1351,-1.1422,-1.1484,-1.1493,-1.1486,-1.1451,-1.1488,-1.1497,-1.1473,-1.1598,-1.1558,-1.1573,-1.1623,-1.1749,-1.1756,-1.1764,-1.1819,-1.1835,-1.1848,0,0,0,0,0,0,-1.1332,-1.1355,-1.1339,-1.1426,-1.1453,-1.1476,-1.1522,-1.1503,-1.1542,-1.1535,-1.1526,-1.1533,-1.1611,-1.1625,-1.158,-1.1716,-1.1668,-1.1679,-1.1705,-1.172,-1.1732,-1.1727,-1.153,0,0,0,0,0,-1.1354,-1.1402,-1.1419,-1.1494,-1.1509,-1.1513,-1.1539,-1.1532,-1.156,-1.1571,-1.1587,-1.1615,-1.1661,-1.1691,-1.1734,-1.1826,-1.1832,-1.1868,-1.188,-1.189,-1.1899,-1.1948,-1.1964,-1.1792,-1.1792,-1.1792,0,0,-1.1402,-1.142,-1.1451,-1.1506,-1.1526,-1.1576,-1.1523,-1.1578,-1.1615,-1.158,-1.1651,-1.1663,-1.1695,-1.1778,-1.1816,-1.1792,-1.1948,-1.1899,-1.1907,-1.1911,-1.1957,-1.1973,-1.1988,-1.1797,-1.1796,-1.1795,0,0,-1.1513,-1.1532,-1.1596,-1.1616,-1.1647,-1.1649,-1.1664,-1.169,-1.1696,-1.1767,-1.1742,-1.1785,-1.1864,-1.1887,-1.1909,-1.2026,-1.2006,-1.2041,-1.2104,-1.2151,-1.2165,-1.2177,-1.2218,-1.2233,-1.205,-1.205,-1.205,0,-1.1568,-1.1641,-1.1631,-1.1688,-1.1712,-1.1682,-1.1746,-1.1767,-1.1811,-1.1829,-1.1801,-1.1898,-1.1917,-1.2004,-1.2033,-1.2052,-1.2069,-1.2038,-1.2163,-1.2175,-1.2186,-1.2226,-1.2241,-1.2054,-1.2054,-1.2053,-1.2053,0,-1.1707,-1.1758,-1.1806,-1.1848,-1.1878,-1.1938,-1.1937,-1.1969,-1.1958,-1.1963,-1.2035,-1.2056,-1.2102,-1.2122,-1.2113,-1.2208,-1.2192,-1.2164,-1.2115,-1.2207,-1.2244,-1.2259,-1.206,-1.2059,-1.2057,-1.2056,0,0,-1.1858,-1.1891,-1.1909,-1.1927,-1.1957,-1.1997,-1.2055,-1.2099,-1.2126,-1.2156,-1.2205,-1.2271,-1.2245,-1.227,-1.2262,-1.2304,-1.2395,-1.227,-1.2271,-1.2293,-1.25,-1.2521,-1.2539,-1.238,-1.2383,-1.2386,-1.2498,0,-1.1971,-1.2072,-1.2064,-1.2159,-1.2206,-1.2176,-1.2227,-1.2251,-1.2257,-1.2297,-1.2303,-1.235,-1.2312,-1.2327,-1.2366,-1.2375,-1.2436,-1.2367,-1.2426,-1.2428,-1.2419,-1.2559,-1.2581,-1.2686,-1.2512,-1.2515,-1.2516,0,-1.2116,-1.215,-1.225,-1.2272,-1.2291,-1.2337,-1.2376,-1.2415,-1.2441,-1.2442,-1.2469,-1.2454,-1.2512,-1.2461,-1.2542,-1.2495,-1.2518,-1.2526,-1.2529,-1.2535,-1.2478,-1.2568,-1.272,-1.2735,-1.2539,-1.2537,-1.2536,0,-1.2216,-1.2287,-1.2355,-1.2371,-1.2399,-1.2431,-1.2444,-1.2468,-1.2494,-1.2528,-1.2544,-1.2585,-1.2607,-1.2639,-1.2635,-1.2598,-1.2717,-1.2665,-1.2719,-1.2719,-1.2746,-1.2744,-1.2904,-1.2761,-1.2761,-1.276,-1.276,0,-1.2343,-1.2405,-1.24,-1.2442,-1.2511,-1.25,-1.2569,-1.2578,-1.2598,-1.2642,-1.2619,-1.266,-1.2653,-1.2694,-1.2691,-1.2757,-1.2768,-1.277,-1.2769,-1.2773,-1.2772,-1.2788,-1.2781,-1.2765,-1.2764,-1.2763,-1.2762,0,-1.2466,-1.2465,-1.2538,-1.2557,-1.2563,-1.2613,-1.2629,-1.2669,-1.2672,-1.2727,-1.2739,-1.2744,-1.2791,-1.279,-1.2844,-1.2842,-1.2924,-1.2914,-1.2915,-1.2913,-1.2966,-1.2961,-1.3142,-1.3164,-1.3007,-1.3008,-1.301,0,-1.2547,-1.2594,-1.2618,-1.2645,-1.2659,-1.2703,-1.2729,-1.272,-1.2749,-1.2781,-1.2817,-1.2861,-1.2897,-1.2973,-1.2982,-1.3023,-1.3014,-1.3074,-1.302,-1.3021,-1.3014,-1.3011,-1.3016,-1.3085,-1.3087,-1.3088,-1.3089,0,-1.2691,-1.2688,-1.2726,-1.2764,-1.2795,-1.2825,-1.2852,-1.2876,-1.2869,-1.2902,-1.2949,-1.2977,-1.303,-1.3075,-1.3114,-1.3127,-1.3108,-1.3106,-1.312,-1.3125,-1.3123,-1.3124,-1.2944,-1.3102,-1.3101,-1.31,-1.3099,-1.3099,-1.2796,-1.2836,-1.2858,-1.2901,-1.292,-1.2945,-1.2983,-1.299,-1.3029,-1.3071,-1.3064,-1.3116,-1.314,-1.319,-1.3207,-1.3248,-1.3226,-1.3248,-1.3253,-1.3258,-1.3264,-1.3116,-1.3255,-1.3254,-1.3254,-1.3254,-1.3253,0,-1.2938,-1.2951,-1.299,-1.3028,-1.3062,-1.3038,-1.3067,-1.3096,-1.3143,-1.3166,-1.3201,-1.3254,-1.3297,-1.3308,-1.3349,-1.3379,-1.3371,-1.339,-1.3388,-1.3391,-1.3281,-1.3264,-1.3396,-1.3396,-1.3396,-1.3396,-1.3396,-1.3396,-1.3016,-1.3082,-1.3081,-1.3156,-1.3168,-1.3219,-1.3237,-1.326,-1.3278,-1.3339,-1.3373,-1.338,-1.3398,-1.3439,-1.3477,-1.3479,-1.3495,-1.3518,-1.3517,-1.3414,-1.3399,-1.3386,-1.337,-1.3522,-1.3522,-1.3624,-1.3625,-1.3625]},{"header":{"parameterUnit":"m.s-1","parameterCategory":1,"la1":30.2991,"la2":30.254,"lo1":-89.0895,"lo2":-89.0444,"dy":0.0017,"dx":0.0017,"nx":28,"ny":28,"refTime":"2026-01-11T09:00:00:Z","depth":0,"parameterNumber":3,"parameterNumberName":"V-component_of_WINDS"},"data":[0,0,0,0,0,0,0,0,0,0,0,0,0,0,0,0,0,0,0,0,0,0,0,0,0,0,0,0,0,0,0,0,0,0,0,0,0,0,0,0,0,0,0,0,0,0,0,0,0,0,0,0,0,0,0,0,0,0,-4.4681,-4.4683,0,-4.4811,-4.4813,-4.4814,-4.4766,-4.4764,-4.4761,-4.4758,-4.4888,-4.4894,-4.49,0,0,0,0,0,0,0,0,0,0,0,0,0,-4.4388,-4.4394,-4.4681,-4.4683,-4.4685,-4.4811,-4.4813,-4.4814,-4.4767,-4.4763,-4.476,-4.4757,-4.4886,-4.4893,-4.49,0,0,0,0,0,0,0,0,0,0,0,0,0,-4.4516,-4.4396,-4.4681,-4.4676,-4.4677,-4.481,-4.4813,-4.4815,-4.4768,-4.4763,-4.4759,-4.4755,-4.4883,-4.4892,-4.4901,-4.5046,0,0,-4.493,-4.4934,0,0,0,0,0,0,0,0,-4.4509,-4.4527,-4.4675,-4.4677,-4.4678,-4.4768,-4.4757,-4.4892,-4.4769,-4.4733,-4.4758,-4.4753,-4.4851,-4.4863,-4.4897,-4.5052,-4.5058,-4.4931,-4.4936,-4.494,-4.4943,0,0,0,0,0,0,0,-4.45,-4.4521,-4.4732,-4.4677,-4.4679,-4.4666,-4.4679,-4.4782,-4.4815,-4.4736,-4.4733,-4.4749,-4.4851,-4.4888,-4.4899,-4.506,-4.493,-4.4938,-4.4944,-4.4948,-4.5338,-4.5343,0,0,0,0,0,0,-4.4491,-4.4514,-4.4728,-4.4736,-4.4581,-4.4675,-4.469,-4.4744,-4.4814,-4.482,-4.4753,-4.4746,-4.4874,-4.4889,-4.4904,-4.5076,-4.494,-4.4949,-4.4954,-4.5333,-4.5339,-4.5344,0,0,0,0,0,0,-4.4485,-4.4511,-4.4723,-4.4625,-4.4651,-4.4685,-4.4745,-4.4748,-4.4785,-4.4827,-4.4832,-4.4785,-4.4871,-4.4891,-4.5011,-4.508,-4.4953,-4.4961,-4.5328,-4.5335,-4.5342,-4.5424,0,0,0,0,0,0,-4.4477,-4.4509,-4.4566,-4.4626,-4.4656,-4.483,-4.475,-4.4754,-4.4802,-4.4795,-4.4858,-4.4864,-4.4869,-4.4997,-4.502,-4.5091,-4.4969,-4.5322,-4.5331,-4.534,-4.5415,-4.5433,-4.5449,0,0,0,0,0,-4.4467,-4.4583,-4.4569,-4.4595,-4.4728,-4.4834,-4.4851,-4.4855,-4.4808,-4.4864,-4.489,-4.4862,-4.5069,-4.501,-4.5035,-4.511,-4.5317,-4.5328,-4.5339,-4.5408,-4.543,-4.5448,0,0,0,0,0,0,-4.453,-4.4591,-4.4576,-4.4716,-4.477,-4.4826,-4.4897,-4.4879,-4.4947,-4.4937,-4.4939,-4.4954,-4.5077,-4.5106,-4.5038,-4.5252,-4.5186,-4.5202,-4.523,-4.5251,-4.5267,-4.5257,-4.4976,0,0,0,0,0,-4.456,-4.4642,-4.4691,-4.481,-4.4838,-4.4863,-4.4909,-4.4908,-4.4964,-4.4986,-4.5021,-4.5076,-4.5152,-4.5203,-4.5277,-4.5419,-4.5431,-4.5483,-4.5499,-4.5513,-4.5527,-4.5602,-4.5625,-4.538,-4.538,-4.538,0,0,-4.4623,-4.4667,-4.4719,-4.4824,-4.4865,-4.4949,-4.4883,-4.4974,-4.5036,-4.5,-4.5115,-4.5143,-4.5203,-4.5335,-4.5394,-4.5362,-4.5597,-4.5527,-4.5537,-4.5544,-4.5615,-4.5639,-4.5659,-4.5387,-4.5386,-4.5385,0,0,-4.4781,-4.4823,-4.4926,-4.4969,-4.5033,-4.5049,-4.5073,-4.5132,-4.5149,-4.5265,-4.5239,-4.5311,-4.5445,-4.5488,-4.5528,-4.57,-4.5676,-4.5724,-4.581,-4.5884,-4.5903,-4.592,-4.598,-4.6002,-4.5738,-4.5738,-4.5738,0,-4.4851,-4.4977,-4.4981,-4.5074,-4.512,-4.5092,-4.5195,-4.5236,-4.5321,-4.5352,-4.5315,-4.5481,-4.552,-4.566,-4.5702,-4.5735,-4.5762,-4.5716,-4.59,-4.5917,-4.5933,-4.599,-4.6013,-4.5743,-4.5743,-4.5742,-4.5741,0,-4.5059,-4.5147,-4.5222,-4.5305,-4.5359,-4.5457,-4.5473,-4.5528,-4.5522,-4.554,-4.5658,-4.5703,-4.5784,-4.5817,-4.5812,-4.5957,-4.5934,-4.5899,-4.5832,-4.5962,-4.6015,-4.6037,-4.5751,-4.5749,-4.5747,-4.5746,0,0,-4.5261,-4.5343,-4.5371,-4.5407,-4.5475,-4.5542,-4.5637,-4.5718,-4.5763,-4.5822,-4.5901,-4.6014,-4.5981,-4.6026,-4.6025,-4.609,-4.6221,-4.6046,-4.6047,-4.6075,-4.638,-4.6406,-4.6431,-4.6205,-4.621,-4.6213,-4.6375,0,-4.5422,-4.5591,-4.5596,-4.575,-4.583,-4.5804,-4.5886,-4.5936,-4.5956,-4.6025,-4.6046,-4.6126,-4.6077,-4.6104,-4.6167,-4.6192,-4.6282,-4.618,-4.6277,-4.628,-4.6262,-4.6459,-4.6487,-4.6638,-4.6396,-4.6399,-4.6402,0,-4.5634,-4.57,-4.5862,-4.5917,-4.595,-4.6025,-4.6097,-4.6165,-4.622,-4.6229,-4.6279,-4.6268,-4.6364,-4.6294,-4.6424,-4.6355,-4.6395,-4.6413,-4.6419,-4.6427,-4.6348,-4.6472,-4.6686,-4.6708,-4.6435,-4.6433,-4.643,0,-4.5763,-4.5892,-4.6005,-4.6037,-4.6104,-4.6157,-4.6187,-4.6238,-4.6285,-4.6348,-4.6378,-4.6452,-4.6491,-4.6547,-4.6556,-4.6505,-4.6686,-4.6618,-4.6695,-4.6695,-4.6734,-4.6731,-4.6956,-4.6762,-4.6762,-4.6761,-4.6761,0,-4.5943,-4.6042,-4.6063,-4.6133,-4.6243,-4.6247,-4.6355,-4.6381,-4.6426,-4.6499,-4.648,-4.6549,-4.6556,-4.6626,-4.6633,-4.6739,-4.6757,-4.6766,-4.6767,-4.6768,-4.6766,-4.6793,-4.6782,-4.6767,-4.6766,-4.6765,-4.6764,0,-4.6105,-4.6123,-4.6244,-4.6298,-4.6314,-4.6392,-4.6437,-4.6503,-4.652,-4.6612,-4.6634,-4.6661,-4.6742,-4.6756,-4.6852,-4.6856,-4.6982,-4.6973,-4.6964,-4.6962,-4.7039,-4.7031,-4.7288,-4.7321,-4.7106,-4.7108,-4.711,0,-4.6218,-4.6294,-4.6355,-4.6403,-4.6436,-4.6513,-4.6561,-4.6567,-4.6618,-4.6685,-4.6742,-4.6821,-4.6885,-4.7015,-4.7043,-4.7115,-4.7106,-4.7191,-4.7117,-4.7115,-4.7106,-4.7101,-4.7107,-4.7205,-4.7208,-4.7209,-4.7211,0,-4.6416,-4.6421,-4.6491,-4.6565,-4.6622,-4.668,-4.6735,-4.6775,-4.6788,-4.6845,-4.6928,-4.6977,-4.7074,-4.7153,-4.7224,-4.7254,-4.7234,-4.7234,-4.7256,-4.7257,-4.7248,-4.7252,-4.7002,-4.7228,-4.7226,-4.7225,-4.7224,-4.7224,-4.6556,-4.6622,-4.6675,-4.6753,-4.6795,-4.6846,-4.691,-4.6935,-4.7005,-4.7085,-4.7084,-4.7174,-4.7225,-4.7319,-4.7353,-4.7423,-4.7396,-4.7427,-4.7435,-4.7442,-4.7449,-4.7238,-4.7436,-4.7436,-4.7435,-4.7435,-4.7435,0,-4.6752,-4.6785,-4.6857,-4.6934,-4.6995,-4.6972,-4.7031,-4.7083,-4.7163,-4.7213,-4.7276,-4.737,-4.7445,-4.7478,-4.7552,-4.7601,-4.7594,-4.762,-4.7616,-4.7623,-4.747,-4.7444,-4.7625,-4.7625,-4.7625,-4.7624,-4.7624,-4.7624,-4.6861,-4.697,-4.6981,-4.711,-4.7141,-4.7231,-4.7266,-4.7312,-4.7351,-4.7458,-4.7521,-4.7542,-4.7584,-4.766,-4.7728,-4.7735,-4.7763,-4.7793,-4.7796,-4.7653,-4.7634,-4.7615,-4.759,-4.7799,-4.7799,-4.7942,-4.7944,-4.7945]}]]